EW3232 Weather Reports


Display with metric or nautical units.
time (UTC)temp
F
wind
direction
speed
MPH
gust
MPH
rain 1hr
in
rain 24hr
in
rain mn
in
humidity
%
barometer
mb
20260905023006 70 256 2.0 4.0 0.00 0.00 0.00 73 1021.6
20260905021608 70 267 3.0 4.0 0.00 0.00 0.00 73 1021.6
20260905020053 71 277 1.0 2.0 0.00 0.00 0.00 73 1021.6
20260905014605 71 270 2.0 3.0 0.00 0.00 0.00 74 1021.6
20260905013115 71 277 1.0 3.0 0.00 0.00 0.00 74 1021.6
20260905011633 71 273 0.0 2.0 0.00 0.00 0.00 74 1021.6
20260905010112 71 273 0.0 3.0 0.00 0.00 0.00 74 1021.7
20260905004635 72 275 0.0 2.0 0.00 0.00 0.00 74 1021.8
20260905003141 72 268 2.0 3.0 0.00 0.00 0.00 73 1021.9
20260905001651 72 283 1.0 3.0 0.00 0.00 0.00 72 1021.9
20260905000137 72 279 0.0 2.0 0.00 0.00 0.00 72 1021.9
20260904234601 72 266 1.0 3.0 0.00 0.00 0.00 71 1021.8
20260904233043 73 270 1.0 2.0 0.00 0.00 0.00 70 1022.0
20260904231602 73 268 2.0 3.0 0.00 0.00 0.00 69 1022.0
20260904230132 73 256 1.0 4.0 0.00 0.00 0.00 69 1021.9
20260904224508 73 278 2.0 3.0 0.00 0.00 0.00 68 1021.8
20260904223046 74 263 3.0 4.0 0.00 0.00 0.00 68 1021.8
20260904221515 74 271 3.0 4.0 0.00 0.00 0.00 67 1021.6
20260904220005 74 281 3.0 6.0 0.00 0.00 0.00 67 1021.7
20260904214526 75 268 1.0 2.0 0.00 0.00 0.00 65 1021.6
20260904213041 76 242 0.0 2.0 0.00 0.00 0.00 64 1021.6
20260904211611 75 252 1.0 4.0 0.00 0.00 0.00 65 1021.7
20260904210050 76 265 2.0 6.0 0.00 0.00 0.00 65 1021.7
20260904204534 76 277 2.0 3.0 0.00 0.00 0.00 65 1021.7
20260904203137 76 266 3.0 6.0 0.00 0.00 0.00 64 1021.5
20260904201654 77 260 1.0 4.0 0.00 0.00 0.00 64 1021.5
20260904200148 77 267 1.0 3.0 0.00 0.00 0.00 64 1021.1
20260904194503 78 277 1.0 2.0 0.00 0.00 0.00 64 1021.0
20260904193013 78 277 1.0 5.0 0.00 0.00 0.00 64 1020.9
20260904191546 78 259 1.0 6.0 0.00 0.00 0.00 64 1020.8
20260904190048 79 264 1.0 4.0 0.00 0.00 0.00 63 1020.7
20260904184614 80 283 1.0 3.0 0.00 0.00 0.00 61 1020.5
20260904183123 82 263 2.0 4.0 0.00 0.00 0.00 58 1020.5
20260904181637 83 294 1.0 4.0 0.00 0.00 0.00 57 1020.4
20260904180034 86 330 1.0 3.0 0.00 0.00 0.00 54 1020.3
20260904174542 87 97 0.0 4.0 0.00 0.00 0.00 53 1020.3
20260904173110 88 106 3.0 7.0 0.00 0.00 0.00 51 1020.3
20260904171633 89 85 2.0 7.0 0.00 0.00 0.00 48 1020.2
20260904170137 89 115 6.0 10.0 0.00 0.00 0.00 47 1020.0
20260904164525 90 109 4.0 9.0 0.00 0.00 0.00 46 1019.9
20260904163038 91 106 2.0 11.0 0.00 0.00 0.00 46 1019.9
20260904161634 91 125 5.0 11.0 0.00 0.00 0.00 45 1020.0
20260904160109 92 98 7.0 12.0 0.00 0.00 0.00 45 1019.9
20260904154628 93 117 7.0 11.0 0.00 0.00 0.00 44 1019.9
20260904153151 92 76 5.0 12.0 0.00 0.00 0.00 49 1019.8
20260904151531 92 92 3.0 11.0 0.00 0.00 0.00 49 1019.8
20260904150107 92 91 4.0 11.0 0.00 0.00 0.00 49 1020.1
20260904144634 92 62 3.0 11.0 0.00 0.00 0.00 50 1020.4
20260904143143 91 125 6.0 16.0 0.00 0.00 0.00 51 1020.4
20260904141654 91 42 5.0 13.0 0.00 0.00 0.00 51 1020.7
20260904140135 91 86 7.0 15.0 0.00 0.00 0.00 52 1020.8
20260904134645 91 77 6.0 12.0 0.00 0.00 0.00 52 1021.0
20260904133157 91 42 6.0 12.0 0.00 0.00 0.00 53 1021.0
20260904124503 90 9 4.0 10.0 0.00 0.00 0.00 52 1021.3
20260904123152 90 46 5.0 14.0 0.00 0.00 0.00 53 1021.3
20260904120144 90 68 7.0 13.0 0.00 0.00 0.00 51 1021.4
20260904114543 90 57 8.0 11.0 0.00 0.00 0.00 52 1021.5
20260904113053 89 133 6.0 12.0 0.00 0.00 0.00 53 1021.5
20260904111639 89 121 8.0 12.0 0.00 0.00 0.00 54 1021.6
20260904110140 89 37 7.0 13.0 0.00 0.00 0.00 54 1021.8
20260904104658 89 138 5.0 11.0 0.00 0.00 0.00 54 1021.9
20260904103012 88 102 5.0 10.0 0.00 0.00 0.00 56 1022.1
20260904101518 88 82 6.0 10.0 0.00 0.00 0.00 57 1022.0
20260904100007 88 86 3.0 8.0 0.00 0.00 0.00 54 1022.1
20260904094558 87 76 4.0 8.0 0.00 0.00 0.00 54 1021.9
20260904093111 85 125 6.0 10.0 0.00 0.00 0.00 52 1022.0
20260904091625 85 124 6.0 9.0 0.00 0.00 0.00 52 1021.9
20260904090115 85 126 4.0 8.0 0.00 0.00 0.00 51 1021.9
20260904084616 84 80 3.0 7.0 0.00 0.00 0.00 53 1021.8
20260904083130 83 72 4.0 7.0 0.00 0.00 0.00 56 1021.6
20260904081636 83 135 3.0 6.0 0.00 0.00 0.00 55 1021.5
20260904080130 84 115 1.0 4.0 0.00 0.00 0.00 49 1021.2
20260904074645 81 56 0.0 2.0 0.00 0.00 0.00 53 1021.2
20260904071516 77 79 1.0 2.0 0.00 0.00 0.00 62 1021.3
20260904070024 75 293 0.0 2.0 0.00 0.00 0.00 68 1021.3
20260904064527 72 293 0.0 1.0 0.00 0.00 0.00 74 1021.3
20260904063045 70 293 1.0 4.0 0.00 0.00 0.00 77 1021.3
20260904061556 68 263 2.0 4.0 0.00 0.00 0.00 80 1021.2
20260904060126 67 274 2.0 4.0 0.00 0.00 0.00 82 1021.3
20260904054653 67 272 1.0 4.0 0.00 0.00 0.00 82 1021.3
20260904053046 67 291 0.0 3.0 0.00 0.00 0.00 83 1021.2
20260904051542 67 280 1.0 4.0 0.00 0.00 0.00 84 1021.2
20260904050030 67 309 2.0 5.0 0.00 0.00 0.00 85 1021.3
20260904044655 67 279 2.0 4.0 0.00 0.00 0.00 86 1021.5
20260904043009 67 271 3.0 4.0 0.00 0.00 0.00 87 1021.5
20260904041537 68 281 1.0 3.0 0.00 0.00 0.00 87 1021.6
20260904040012 68 252 0.0 2.0 0.00 0.00 0.00 87 1021.6
20260904034522 68 271 1.0 2.0 0.00 0.00 0.00 86 1021.6
20260904033052 68 253 1.0 3.0 0.00 0.00 0.00 86 1021.7
20260904031546 68 259 0.0 3.0 0.00 0.00 0.00 86 1021.7
20260904030038 69 270 1.0 2.0 0.00 0.00 0.00 86 1021.9
20260904024617 69 258 0.0 2.0 0.00 0.00 0.00 86 1021.9